Location: Baix
(44.7118°N, 4.7648°E)
Time: 15:37:12
(UTC+00:00)

Cosmos 2297 Rocket - Pass Details

Date: 07 August 2020
Orbit: 838 x 845 km, 71.0° (Epoch: 22 September)

Event Time Altitude Azimuth Distance (km) Brightness Sun altitude
Exits shadow 00:46:06 39° 110° (ESE) 1,234 2.9 -27.5°
Maximum altitude 00:46:13 39° 106° (ESE) 1,233 3.0 -27.5°
Drops below altitude 10° 00:51:25 10° 39° (NE) 2,464 5.5 -27.2°
Sets 00:54:00 0° 32° (NNE) 3,404 6.5 -27.1°
